This is the latest recevied weather packets stored in our database for station/object SALT. If no packets are shown the sender has not sent any weather packets the latest 10 day(s).
| Time | Temp. | Humidity | Pressure | Rain* | Wind** | Luminosity | Snow |
|---|---|---|---|---|---|---|---|
| 1778259861 | 13.89° C | 33% | 1021.4 hPa | 0 mm | - | - | - |
| 1778259256 | 13.33° C | 35% | 1021.4 hPa | 0 mm | - | - | - |
| 1778258654 | 13.33° C | 33% | 1021.3 hPa | 0 mm | - | - | - |
| 1778258051 | 12.78° C | 35% | 1021.2 hPa | 0 mm | - | - | - |
| 1778257572 | 12.78° C | 33% | 1021.3 hPa | 0 mm | - | - | - |
| 1778257448 | 12.78° C | 33% | 1021.3 hPa | 0 mm | - | - | - |
| 1778256846 | 12.78° C | 35% | 1021.4 hPa | 0 mm | - | - | - |
| 1778256243 | 12.22° C | 34% | 1021.2 hPa | 0 mm | - | - | - |
| 1778255638 | 12.22° C | 35% | 1021.1 hPa | 0 mm | - | - | - |
| 1778255036 | 12.22° C | 35% | 1021.2 hPa | 0 mm | - | - | - |
| 1778254432 | 11.67° C | 35% | 1021.3 hPa | 0 mm | - | - | - |
| 1778253830 | 11.67° C | 37% | 1021.2 hPa | 0 mm | - | - | - |
| 1778253227 | 11.11° C | 34% | 1021.2 hPa | 0 mm | - | - | - |
| 1778252624 | 11.11° C | 33% | 1021.2 hPa | 0 mm | - | - | - |
| 1778252020 | 11.11° C | 34% | 1021.4 hPa | 0 mm | - | - | - |
| 1778251417 | 11.11° C | 36% | 1021.3 hPa | 0 mm | - | - | - |
| 1778250853 | 10.56° C | 35% | 1021.3 hPa | 0 mm | - | - | - |
| 1778250814 | 10.56° C | 35% | 1021.3 hPa | 0 mm | - | - | - |
| 1778250212 | 10.56° C | 36% | 1021.3 hPa | 0 mm | - | - | - |
| 1778249609 | 10.56° C | 35% | 1021.4 hPa | 0 mm | - | - | - |
| 1778249007 | 10° C | 35% | 1021.5 hPa | 0 mm | - | - | - |
| 1778248402 | 10° C | 33% | 1021.5 hPa | 0 mm | - | - | - |
| 1778247799 | 9.44° C | 36% | 1021.5 hPa | 0 mm | - | - | - |
| 1778247197 | 7.78° C | 37% | 1021.4 hPa | 0 mm | - | - | - |
| 1778246594 | 6.67° C | 43% | 1021.4 hPa | 0 mm | - | - | - |
* Rain latest 24 hours (hover to see other rain measurements)
** Current wind speed in m/s (hover to see current wind gust speed)